Regional Weather Roundup
Issued by NWS Albany, NY

Home | Current Version | Previous Version | Text Only | Print | Product List | Glossary On
Versions: 1 2 3 4 5 6 7 8 9 10 11 12 13 14 15 16 17 18 19 20 21 22 23 24 25 26 27 28 29 30 31 32 33 34 35 36 37 38 39 40 41 42 43 44 45 46 47 48 49 50
000
ASUS41 KALY 070910
RWRALY

NEW YORK STATE HOURLY WEATHER ROUNDUP
NATIONAL WEATHER SERVICE ALBANY NY
500 AM EDT TUE JUL 07 2015

NOTE: "FAIR" INDICATES FEW OR NO CLOUDS BELOW 12,000 FEET WITH NO
SIGNIFICANT WEATHER AND/OR NO OBSTRUCTIONS TO VISIBILITY.

NYZ032-033-038>043-046>054-057>066-NYZ062>081-071000-
EAST


CITY           SKY/WX    TMP DP  RH WIND       PRES   REMARKS
ALBANY         PTCLDY    70  65  84 S3        30.04S
GLENS FALLS    CLOUDY    69  66  90 CALM      30.05R
POUGHKEEPSIE   CLOUDY    70  66  87 SE5       30.05S
NEWBURGH       MOCLDY    70  68  94 VRB6      30.07S
MONTGOMERY     CLOUDY    71  67  87 NE5       30.05S
WHITE PLAINS   CLOUDY    72  70  93 E3        30.06S
ISLIP          CLOUDY    73  71  93 S6        30.05S FOG
NEW YORK CITY  CLOUDY    75  71  87 S7        30.04S
CENTRAL PARK   CLOUDY    76  71  85 S5        30.07S
$$

NYZ005>009-017-018-044>046-055-056-071000-
CENTRAL


CITY           SKY/WX    TMP DP  RH WIND       PRES   REMARKS
FULTON         LGT RAIN  71  66  84 SE5       29.96S
SYRACUSE       MOCLDY    74  68  81 SE8       29.96S
ROME           CLOUDY    71  66  84 E7        30.01S
ELMIRA         CLOUDY    69  68  96 NW3       29.99R
BINGHAMTON     CLOUDY    68  67  96 SE6       30.03F
MONTICELLO     CLOUDY    68  66  94 SE6       30.09S
$$

NYZ026>034-041>043-071000-
NORTH


CITY           SKY/WX    TMP DP  RH WIND       PRES   REMARKS
WATERTOWN      MOCLDY    74  66  76 S8        29.94S
FORT DRUM      NOT AVBL
MASSENA        PTCLDY    66  62  87 S6        29.94F
SARANAC LAKE   MOCLDY    54  53  97 CALM      30.03F
PLATTSBURGH    CLOUDY    62  60  93 CALM      29.99S
$$

NYZ001>004-010>016-019>021-071000-
WEST


CITY           SKY/WX    TMP DP  RH WIND       PRES   REMARKS
NIAGARA FALLS  CLEAR     69  67  93 S7        29.92
BUFFALO        FAIR      70  66  87 S9        29.93F
DUNKIRK        PTCLDY    72  67  84 S10G22    29.93F
JAMESTOWN      CLOUDY    66  64  94 S7        30.00F
WELLSVILLE     MOCLDY    68  64  87 SW8       30.04F
ROCHESTER      MOCLDY    69  67  93 SW5       29.95R
PENN YAN       MOCLDY    69  67  93 S5        29.97F
$$

             KEY
       WCI = WIND CHILL INDEX
       VSB = VISIBILITY
       HX  = HEAT INDEX
$$


USA.gov is the U.S. government's official web portal to all federal, state and local government web resources and services.